When you browse on this site, cookies collect data to enhance your experience and personalize the content and advertising you see.
Visit our Privacy Policy to learn more. By continuing to use the site, you agree to this use of cookies and data.
  • Em Portugal
  • Lista de países
  • Para 7 dias
  • Temperatura da água
  • Mapa do tempo
  • Widgets de tempo
  • user-avatar
    Iniciar Sessão

    Previsão horária em Muslah

    Hoje, 23 Setembro, Segunda-feira

    Tempo Temperatura Precipitação Vento Pressão Humidade
    00:00 +2°C° 0 mm 2 m/s 609 mmHg 55%
    01:00 +3°C° 0 mm 2 m/s 608 mmHg 56%
    02:00 +4°C° 0 mm 1 m/s 608 mmHg 56%
    03:00 +3°C° 0 mm 2 m/s 608 mmHg 57%
    04:00 +4°C° 0 mm 1 m/s 608 mmHg 56%
    05:00 +4°C° 0 mm 1 m/s 608 mmHg 55%
    06:00 +4°C° 0 mm 1 m/s 608 mmHg 54%
    07:00 +7°C° 0 mm 1 m/s 609 mmHg 52%
    08:00 +8°C° 0 mm 2 m/s 610 mmHg 50%
    09:00 +10°C° 0 mm 2 m/s 611 mmHg 46%
    10:00 +12°C° 0 mm 2 m/s 611 mmHg 46%
    11:00 +13°C° 0 mm 2 m/s 611 mmHg 45%
    12:00 +12°C° 0 mm 3 m/s 611 mmHg 45%
    13:00 +12°C° 0 mm 3 m/s 611 mmHg 45%
    14:00 +14°C° 0 mm 2 m/s 611 mmHg 44%
    15:00 +14°C° 0 mm 2 m/s 610 mmHg 44%
    16:00 +10°C° 0 mm 2 m/s 609 mmHg 53%
    17:00 +9°C° 0 mm 1 m/s 608 mmHg 63%
    18:00 +6°C° 0 mm 1 m/s 607 mmHg 72%
    19:00 +6°C° 0 mm 1 m/s 608 mmHg 68%
    20:00 +6°C° 0 mm 1 m/s 608 mmHg 63%
    21:00 +5°C° 0 mm 1 m/s 608 mmHg 59%
    22:00 +5°C° 0 mm 1 m/s 608 mmHg 59%
    23:00 +5°C° 0 mm 1 m/s 608 mmHg 60%

    Amanhã, 24 Setembro, Terça-feira

    Tempo Temperatura Precipitação Vento Pressão Humidade
    00:00 +5°C° 0 mm 1 m/s 608 mmHg 60%
    01:00 +5°C° 0 mm 1 m/s 608 mmHg 60%
    02:00 +5°C° 0 mm 1 m/s 608 mmHg 61%
    03:00 +5°C° 0 mm 1 m/s 608 mmHg 62%
    04:00 +5°C° 0 mm 1 m/s 608 mmHg 62%
    05:00 +5°C° 0 mm 1 m/s 608 mmHg 63%
    06:00 +5°C° 0 mm 1 m/s 608 mmHg 64%
    07:00 +7°C° 0 mm 2 m/s 609 mmHg 60%
    08:00 +9°C° 0 mm 2 m/s 610 mmHg 56%
    09:00 +12°C° 0 mm 2 m/s 611 mmHg 52%
    10:00 +13°C° 0 mm 2 m/s 611 mmHg 51%
    11:00 +13°C° 0 mm 3 m/s 611 mmHg 51%
    12:00 +14°C° 0 mm 3 m/s 611 mmHg 50%
    13:00 +14°C° 0 mm 3 m/s 611 mmHg 51%
    14:00 +14°C° 0 mm 3 m/s 611 mmHg 52%
    15:00 +14°C° 0 mm 3 m/s 610 mmHg 53%
    16:00 +12°C° 0 mm 2 m/s 609 mmHg 61%
    17:00 +10°C° 0 mm 1 m/s 608 mmHg 70%
    18:00 +8°C° 0 mm 1 m/s 607 mmHg 78%
    19:00 +8°C° 0 mm 1 m/s 607 mmHg 75%
    20:00 +7°C° 0 mm 1 m/s 607 mmHg 72%
    21:00 +7°C° 0 mm 1 m/s 608 mmHg 69%
    22:00 +7°C° 0 mm 1 m/s 607 mmHg 70%
    23:00 +7°C° 0 mm 1 m/s 607 mmHg 71%

    Depois de amanhã, 25 Setembro, Quarta-feira

    Tempo Temperatura Precipitação Vento Pressão Humidade
    00:00 +7°C° 0 mm 1 m/s 607 mmHg 72%
    01:00 +7°C° 0 mm 1 m/s 607 mmHg 72%
    02:00 +7°C° 0 mm 1 m/s 607 mmHg 73%
    03:00 +7°C° 0 mm 1 m/s 606 mmHg 73%
    04:00 +7°C° 0 mm 1 m/s 607 mmHg 71%
    05:00 +7°C° 0 mm 1 m/s 607 mmHg 69%
    06:00 +7°C° 0 mm 1 m/s 607 mmHg 67%
    07:00 +9°C° 0 mm 2 m/s 608 mmHg 60%
    08:00 +12°C° 0 mm 2 m/s 609 mmHg 53%
    09:00 +15°C° 0 mm 2 m/s 610 mmHg 46%
    10:00 +16°C° 0 mm 3 m/s 611 mmHg 45%
    11:00 +16°C° 0 mm 3 m/s 611 mmHg 45%
    12:00 +17°C° 0 mm 3 m/s 611 mmHg 44%
    13:00 +17°C° 0 mm 3 m/s 611 mmHg 43%
    14:00 +17°C° 0 mm 3 m/s 611 mmHg 43%
    15:00 +17°C° 0 mm 3 m/s 611 mmHg 42%
    16:00 +14°C° 0 mm 3 m/s 610 mmHg 51%
    17:00 +13°C° 0 mm 2 m/s 609 mmHg 60%
    18:00 +9°C° 0 mm 2 m/s 608 mmHg 70%
    19:00 +10°C° 0 mm 1 m/s 608 mmHg 70%
    20:00 +9°C° 0 mm 1 m/s 609 mmHg 70%
    21:00 +9°C° 0 mm 1 m/s 609 mmHg 70%
    22:00 +9°C° 0 mm 1 m/s 609 mmHg 70%
    23:00 +9°C° 0 mm 1 m/s 609 mmHg 70%

    26 Setembro, Quinta-feira

    Tempo Temperatura Precipitação Vento Pressão Humidade
    00:00 +9°C° 0 mm 1 m/s 609 mmHg 69%
    01:00 +9°C° 0 mm 1 m/s 609 mmHg 70%
    02:00 +8°C° 0 mm 1 m/s 608 mmHg 71%
    03:00 +8°C° 0 mm 1 m/s 608 mmHg 72%
    04:00 +8°C° 0 mm 1 m/s 608 mmHg 72%
    05:00 +8°C° 0 mm 1 m/s 608 mmHg 73%
    06:00 +8°C° 0 mm 1 m/s 608 mmHg 74%
    07:00 +9°C° 0 mm 2 m/s 609 mmHg 69%
    08:00 +13°C° 0 mm 2 m/s 610 mmHg 64%
    09:00 +15°C° 0 mm 2 m/s 611 mmHg 59%
    10:00 +16°C° 0 mm 3 m/s 611 mmHg 55%
    11:00 +17°C° 0 mm 4 m/s 611 mmHg 52%
    12:00 +18°C° 0 mm 4 m/s 612 mmHg 49%
    13:00 +18°C° 0 mm 4 m/s 611 mmHg 48%
    14:00 +18°C° 0 mm 4 m/s 611 mmHg 46%
    15:00 +18°C° 0 mm 4 m/s 611 mmHg 45%
    16:00 +16°C° 0 mm 3 m/s 610 mmHg 52%
    17:00 +14°C° 0 mm 2 m/s 609 mmHg 59%
    18:00 +12°C° 0 mm 1 m/s 608 mmHg 67%
    19:00 +11°C° 0 mm 1 m/s 608 mmHg 68%
    20:00 +11°C° 0 mm 1 m/s 608 mmHg 68%
    21:00 +10°C° 0 mm 1 m/s 608 mmHg 69%
    22:00 +10°C° 0 mm 1 m/s 608 mmHg 72%
    23:00 +10°C° 0 mm 1 m/s 608 mmHg 76%

    27 Setembro, Sexta-feira

    Tempo Temperatura Precipitação Vento Pressão Humidade
    00:00 +9°C° 0 mm 2 m/s 608 mmHg 79%
    01:00 +8°C° 0 mm 2 m/s 608 mmHg 80%
    02:00 +9°C° 0 mm 1 m/s 608 mmHg 80%
    03:00 +9°C° 0 mm 1 m/s 608 mmHg 81%
    04:00 +9°C° 0 mm 1 m/s 608 mmHg 80%
    05:00 +9°C° 0 mm 1 m/s 608 mmHg 80%
    06:00 +9°C° 0 mm 1 m/s 608 mmHg 80%
    07:00 +10°C° 0 mm 2 m/s 609 mmHg 74%
    08:00 +13°C° 0 mm 2 m/s 610 mmHg 68%
    09:00 +16°C° 0 mm 2 m/s 611 mmHg 62%
    10:00 +16°C° 0 mm 3 m/s 611 mmHg 60%
    11:00 +17°C° 0 mm 3 m/s 611 mmHg 58%
    12:00 +18°C° 0 mm 3 m/s 611 mmHg 56%
    13:00 +18°C° 0 mm 3 m/s 611 mmHg 54%
    14:00 +18°C° 0 mm 3 m/s 611 mmHg 53%
    15:00 +18°C° 0 mm 3 m/s 610 mmHg 52%
    16:00 +16°C° 0 mm 2 m/s 610 mmHg 60%
    17:00 +14°C° 0 mm 2 m/s 609 mmHg 67%
    18:00 +13°C° 0 mm 1 m/s 608 mmHg 74%
    19:00 +12°C° 0 mm 1 m/s 608 mmHg 75%
    20:00 +12°C° 0 mm 1 m/s 608 mmHg 75%
    21:00 +11°C° 0 mm 1 m/s 608 mmHg 75%
    22:00 +11°C° 0 mm 1 m/s 608 mmHg 78%
    23:00 +11°C° 0 mm 1 m/s 608 mmHg 81%

    28 Setembro, Sábado

    Tempo Temperatura Precipitação Vento Pressão Humidade
    00:00 +10°C° 0 mm 1 m/s 607 mmHg 84%
    01:00 +10°C° 0 mm 1 m/s 607 mmHg 84%
    02:00 +10°C° 0 mm 1 m/s 607 mmHg 85%
    03:00 +10°C° 0 mm 1 m/s 607 mmHg 85%
    04:00 +10°C° 0 mm 1 m/s 606 mmHg 84%
    05:00 +9°C° 0 mm 1 m/s 606 mmHg 83%
    06:00 +9°C° 0 mm 1 m/s 606 mmHg 83%
    07:00 +12°C° 0 mm 2 m/s 607 mmHg 75%
    08:00 +13°C° 0 mm 3 m/s 608 mmHg 67%
    09:00 +16°C° 0 mm 3 m/s 609 mmHg 59%
    10:00 +15°C° 0.1 mm 4 m/s 609 mmHg 64%
    11:00 +14°C° 0.1 mm 4 m/s 609 mmHg 69%
    12:00 +14°C° 0.1 mm 4 m/s 609 mmHg 74%
    13:00 +13°C° 0.4 mm 3 m/s 608 mmHg 76%
    14:00 +12°C° 0.4 mm 3 m/s 608 mmHg 78%
    15:00 +13°C° 0.4 mm 2 m/s 608 mmHg 80%
    16:00 +12°C° 0 mm 1 m/s 608 mmHg 82%
    17:00 +10°C° 0 mm 1 m/s 608 mmHg 83%
    18:00 +9°C° 0 mm 1 m/s 607 mmHg 84%
    19:00 +9°C° 0 mm 1 m/s 608 mmHg 83%
    20:00 +9°C° 0 mm 1 m/s 608 mmHg 81%
    21:00 +8°C° 0 mm 2 m/s 608 mmHg 79%
    22:00 +8°C° 0 mm 1 m/s 608 mmHg 80%
    23:00 +8°C° 0 mm 1 m/s 608 mmHg 81%
    Mostrar mais